{"data":{"norad_id":53590,"intl_designator":"2022-104C","name":"STARLINK-4689","alt_names":[],"object_type":"PAYLOAD","status":"ACTIVE","operator":null,"country":"US","launch_date":"2022-08-28","launch_site_code":"AFETR","launch_vehicle":null,"mission":null,"orbit_class":"UNKNOWN","rcs_meters":null,"size_class":null,"mass_kg":null,"dimensions":null,"purposes":["comms"],"wikipedia_slug":null,"has_3d_model":false,"image_url":null,"decayed_at":null,"tle_current":{"epoch":"2026-05-25T04:00:03.998880Z","epoch_age_seconds":64611,"freshness":"FRESH","line1":"1 53590U 22104C   26145.16671295  .00175891  00000+0  37603-2 0  9997","line2":"2 53590  53.2186 254.7207 0001412  77.0232  57.6228 15.43698841  5638","mean_motion":15.43698841,"eccentricity":0.0001412,"inclination_deg":53.2186,"raan_deg":254.7207,"arg_perigee_deg":77.0232,"mean_anomaly_deg":57.6228,"bstar":0.0037603,"rev_number":563,"period_min":93.282443554027,"perigee_km":434.24191177243,"apogee_km":436.16599925827,"semimajor_km":6813.3409555154,"source":"CELESTRAK","updated_at":"2026-05-25T13:38:17.473963Z"}}}